User: anonymous   Login
Location: Lawrence Hall of Science
(37.8785°N, 122.2415°W)
Time: 22:48:45
(UTC-08:00)
Language:

Cosmos 2098 Rocket - Orbit

View from above orbital plane
View from above orbital plane
View from above satellite
View from above satellite

Ground track
Ground track

The orbit data is extracted from the following two-line orbital elements,

1 20775U 90078B   16336.79639142  .00002215  00000-0  11169-3 0  9996
2 20775  82.9305 209.8567 0591608 229.7692 125.0308 14.29697809320552
Epoch (UTC): 01 December 2016 19:06:48
Eccentricity: 0.0591608
inclination: 82.9305°
perigee height: 368 km
apogee height: 1217 km
right ascension of ascending node: 209.8567°
argument of perigee: 229.7692°
revolutions per day: 14.29697809
mean anomaly at epoch: 125.0308°
orbit number at epoch: 32055

The dashed part of the orbit path shows where the satellite is in the earth's shadow,  

DLR